AD8PA-13 Weather Reports


Display with metric or nautical units.
time (UTC)temp
F
wind
direction
speed
MPH
gust
MPH
rain 1hr
in
rain 24hr
in
rain mn
in
humidity
%
barometer
mb
20260508224838 67 150 2.0 6.0 0.00 0.00 0.00 35 1007.5
20260508223335 65 204 2.0 4.0 0.00 0.00 0.00 38 1007.7
20260508221832 66 238 3.0 7.0 0.00 0.00 0.00 37 1007.7
20260508220332 66 171 1.0 4.0 0.00 0.00 0.00 40 1007.7
20260508214829 66 273 2.0 3.0 0.00 0.00 0.00 39 1008.0
20260508213325 68 238 3.0 6.0 0.00 0.00 0.00 34 1007.8
20260508211825 67 36 2.0 4.0 0.00 0.00 0.00 37 1008.0
20260508210321 68 242 1.0 3.0 0.00 0.00 0.00 39 1008.1
20260508204816 66 254 2.0 6.0 0.00 0.00 0.00 36 1008.2
20260508203311 67 222 3.0 3.0 0.00 0.00 0.00 35 1008.2
20260508201808 64 256 2.0 7.0 0.00 0.00 0.00 38 1008.4
20260508200303 67 204 1.0 6.0 0.00 0.00 0.00 36 1009.0
20260508194803 66 231 3.0 4.0 0.00 0.00 0.00 36 1009.0
20260508193301 66 270 2.0 3.0 0.00 0.00 0.00 36 1009.3
20260508191757 64 226 2.0 6.0 0.00 0.00 0.00 41 1009.5
20260508190253 65 276 7.0 13.0 0.00 0.00 0.00 37 1009.9
20260508184750 64 244 4.0 7.0 0.00 0.00 0.00 37 1010.1
20260508183246 65 234 3.0 7.0 0.00 0.00 0.00 36 1010.2
20260508181741 64 282 3.0 4.0 0.00 0.00 0.00 38 1010.2
20260508180237 64 351 2.0 7.0 0.00 0.00 0.00 35 1010.4
20260508174735 63 49 3.0 3.0 0.00 0.00 0.00 39 1010.7
20260508173230 62 219 1.0 3.0 0.00 0.00 0.00 40 1011.0
20260508171726 62 278 2.0 3.0 0.00 0.00 0.00 41 1011.4
20260508170223 61 287 4.0 6.0 0.00 0.00 0.00 38 1011.7
20260508164720 61 231 2.0 2.0 0.00 0.00 0.00 40 1011.4
20260508163217 62 325 0.0 2.0 0.00 0.00 0.00 45 1011.8
20260508161713 59 242 3.0 7.0 0.00 0.00 0.00 40 1012.2
20260508160212 59 242 1.0 2.0 0.00 0.00 0.00 45 1012.1
20260508154708 59 358 3.0 8.0 0.00 0.00 0.00 42 1012.2
20260508153205 58 288 2.0 3.0 0.00 0.00 0.00 42 1012.1
20260508151706 58 211 1.0 4.0 0.00 0.00 0.00 48 1012.1
20260508150202 58 260 2.0 3.0 0.00 0.00 0.00 49 1012.6
20260508144657 57 303 2.0 3.0 0.00 0.00 0.00 47 1012.7
20260508143155 56 85 0.0 1.0 0.00 0.00 0.00 50 1012.8
20260508141656 54 289 0.0 2.0 0.00 0.00 0.00 55 1012.8
20260508140153 54 319 1.0 1.0 0.00 0.00 0.00 57 1013.2
20260508134653 54 260 0.0 1.0 0.00 0.00 0.00 62 1013.1
20260508133149 52 349 0.0 1.0 0.00 0.00 0.00 66 1013.0
20260508131645 51 208 0.0 1.0 0.00 0.00 0.00 67 1013.1
20260508130141 50 123 0.0 3.0 0.00 0.00 0.00 70 1013.1
20260508124638 49 119 1.0 3.0 0.00 0.00 0.00 70 1012.9
20260508123136 48 75 0.0 2.0 0.00 0.00 0.00 71 1012.8
20260508121633 47 118 2.0 2.0 0.00 0.00 0.00 71 1012.9
20260508120132 46 106 0.0 1.0 0.00 0.00 0.00 74 1012.7
20260508114629 44 114 0.0 1.0 0.00 0.00 0.00 89 1012.3
20260508113127 41 60 0.0 0.0 0.00 0.00 0.00 98 1012.3
20260508111622 38 92 0.0 0.0 0.00 0.00 0.00 98 1011.9
20260508110119 38 88 0.0 0.0 0.00 0.00 0.00 97 1011.9
20260508104614 38 68 0.0 0.0 0.00 0.00 0.00 97 1011.9
20260508103111 38 48 0.0 0.0 0.00 0.00 0.00 97 1012.0
20260508101609 38 14 0.0 0.0 0.00 0.00 0.00 97 1011.9
20260508100107 38 12 0.0 0.0 0.00 0.00 0.00 97 1011.8
20260508094604 38 5 0.0 0.0 0.00 0.00 0.00 96 1011.9
20260508093102 38 354 0.0 0.0 0.00 0.00 0.00 96 1011.9
20260508091559 38 14 0.0 0.0 0.00 0.00 0.00 95 1012.2
20260508090056 38 14 0.0 0.0 0.00 0.00 0.00 95 1012.0
20260508084552 38 14 0.0 0.0 0.00 0.00 0.00 94 1012.0
20260508083049 39 14 0.0 0.0 0.00 0.00 0.00 94 1012.1
20260508081546 40 15 0.0 0.0 0.00 0.00 0.00 93 1012.2
20260508080043 40 9 0.0 0.0 0.00 0.00 0.00 93 1012.2
20260508074540 41 19 0.0 0.0 0.00 0.00 0.00 94 1012.2
20260508073038 42 25 0.0 0.0 0.00 0.00 0.00 95 1012.2
20260508071534 41 24 0.0 0.0 0.00 0.00 0.00 95 1012.4
20260508070033 41 33 0.0 0.0 0.00 0.00 0.00 95 1012.3
20260508064532 41 27 0.0 0.0 0.00 0.00 0.00 95 1012.2
20260508063031 41 27 0.0 0.0 0.00 0.00 0.00 94 1012.3
20260508061528 41 31 0.0 0.0 0.00 0.00 0.00 94 1012.4
20260508060025 40 40 0.0 0.0 0.00 0.00 0.00 93 1012.7
20260508054526 40 48 0.0 0.0 0.00 0.00 0.00 92 1012.6
20260508053024 40 52 0.0 0.0 0.00 0.00 0.00 90 1012.8
20260508051520 41 53 0.0 0.0 0.00 0.00 0.00 88 1012.6
20260508050015 42 79 0.0 0.0 0.00 0.00 0.00 86 1012.4
20260508044512 43 51 0.0 0.0 0.00 0.00 0.00 80 1012.7
20260508043007 44 53 2.0 3.0 0.00 0.00 0.00 78 1012.8
20260508041504 47 232 1.0 3.0 0.00 0.00 0.00 70 1012.6
20260508040001 48 333 0.0 0.0 0.00 0.00 0.00 65 1012.6
20260508034458 47 18 0.0 0.0 0.00 0.00 0.00 64 1012.4
20260508032955 48 24 0.0 0.0 0.00 0.00 0.00 63 1012.3
20260508031453 49 164 0.0 2.0 0.00 0.00 0.00 60 1012.3
20260508025948 50 215 1.0 1.0 0.00 0.00 0.00 56 1012.8
20260508024443 49 270 2.0 3.0 0.00 0.00 0.00 56 1012.9
20260508022940 49 237 1.0 2.0 0.00 0.00 0.00 56 1012.8
20260508021435 49 153 0.0 0.0 0.00 0.00 0.00 55 1012.6
20260508015931 50 225 0.0 0.0 0.00 0.00 0.00 54 1012.7
20260508014428 50 233 0.0 0.0 0.00 0.00 0.00 52 1012.6
20260508012923 50 270 0.0 1.0 0.00 0.00 0.00 51 1012.4
20260508011421 50 324 0.0 0.0 0.00 0.00 0.00 52 1012.0
20260508005918 50 240 1.0 2.0 0.00 0.00 0.00 50 1012.0
20260508004413 51 273 2.0 2.0 0.00 0.00 0.00 49 1012.2
20260508002910 52 265 0.0 1.0 0.00 0.00 0.00 47 1012.1
20260508001411 52 291 2.0 3.0 0.00 0.00 0.00 46 1011.8
20260507235906 53 244 0.0 2.0 0.00 0.00 0.00 45 1012.0
20260507234403 53 224 0.0 1.0 0.00 0.00 0.00 45 1011.9
20260507232901 54 296 2.0 4.0 0.00 0.00 0.00 42 1011.8
20260507231356 55 318 2.0 4.0 0.00 0.00 0.00 42 1011.8
20260507225856 56 244 2.0 7.0 0.00 0.00 0.00 40 1012.0